Flag for U.S.A. Weather past 2 weeks in Wake Island, Wake Island, U.S.A.

Now
77 °F

More clouds than sun.


Feels Like: 78 °F
Forecast: 77 / 81 °F
Wind: 29 mph from Northeast

Location: Wake Island Airfld

Current Time: Dec 21, 2014 at 5:40:40 PM

Latest Report: Dec 21, 2014 at 5:04 PM


Visibility: N/A

Pressure: 30.00 "Hg

Humidity: 83%

Dew point: 72 °F

Location of Wake IslandLocation

Historic Weather in Wake Island — Graph

°F

Wake Island temperature yesterday

Maximum temperature yesterday: 84 °F (at 12:58 PM)
Minimum temperature yesterday: 78 °F (at 1:58 AM)
Average temperature yesterday: 80 °F

Past Weeks' High & Low Weather Summary

 TemperatureHumidityPressure
High86 °F (Dec 13, 1:58 PM)94% (Dec 14, 1:03 AM)30.10 "Hg (Dec 14, 1:03 AM)
Low75 °F (Dec 21, 5:58 AM)65% (Dec 17, 11:58 AM)29.80 "Hg (Dec 6, 3:58 PM)
Average81 °F81%29.99 "Hg
* Reported Dec 6 3:58 PM — Dec 21 3:58 PM, Wake Island, Weather by CustomWeather, © 2014

Note: Actual official high and low records may vary slightly from our data, if they occured in-between our weather recording intervals... More about our weather records

Advertising

Wake Island weather history for previous 24 hours

 ConditionsComfort  
Time TempWeatherWind HumidityBarometerVisibility
3:58 PM
Dec 21
79 °FPartly sunny.29 mph79%30.00 "Hg6 mi
2:58 PM80 °FPassing clouds.29 mph75%30.01 "HgN/A
2:03 PM81 °FCloudy.26 mph74%30.00 "HgN/A
1:58 PM80 °FCloudy.28 mph78%30.02 "HgN/A
12:58 PM81 °FScattered clouds.22 mph73%30.05 "HgN/A
11:58 AM80 °FScattered clouds.24 mph77%30.07 "HgN/A
10:58 AM79 °FBroken clouds.28 mph81%30.08 "HgN/A
10:00 AM77 °FFog.31 mph89%30.06 "Hg4 mi
9:00 AM77 °FBroken clouds.26 mph89%30.04 "HgN/A
8:58 AM78 °FLight rain. Broken clouds.29 mph84%30.06 "Hg6 mi
8:03 AM77 °FOvercast.26 mph83%30.03 "HgN/A
7:58 AM77 °FMostly cloudy.31 mph86%30.04 "HgN/A
7:01 AM75 °FMostly cloudy.24 mph94%30.00 "HgN/A
6:58 AM75 °FLight rain. Fog.28 mph90%30.02 "Hg2 mi
6:03 AM75 °FRain. Fog.26 mph94%29.99 "Hg1 mi
5:58 AM75 °FRain. Fog.31 mph94%30.01 "Hg2 mi
5:02 AM75 °FLight rain. Partly cloudy.26 mph94%29.99 "HgN/A
4:03 AM75 °FLight rain. Mostly cloudy.28 mph94%29.98 "HgN/A
3:58 AM76 °FLight rain. Overcast.26 mph93%30.00 "HgN/A
3:04 AM77 °FPartly cloudy.30 mph89%29.99 "HgN/A
2:59 AM75 °FPartly cloudy.30 mph94%29.99 "HgN/A
1:58 AM78 °FPartly cloudy.28 mph86%30.02 "HgN/A
12:58 AM79 °FPassing clouds.23 mph81%30.02 "HgN/A
11:58 PM
Dec 20
79 °FPassing clouds.25 mph79%30.02 "HgN/A
10:58 PM80 °FPassing clouds.26 mph77%30.02 "HgN/A
9:58 PM79 °FClear.21 mph79%30.04 "HgN/A
8:58 PM79 °FPassing clouds.25 mph84%30.03 "HgN/A
7:58 PM80 °FPartly cloudy.23 mph85%30.01 "HgN/A
6:58 PM80 °FPassing clouds.23 mph79%30.00 "HgN/A
6:03 PM81 °FBroken clouds.20 mph79%29.97 "HgN/A
5:58 PM80 °FScattered clouds.22 mph80%29.99 "HgN/A
Weather by CustomWeather, © 2014

See weather overviewHow to use our weather pages